Location: Unspecified
(0.0000°N, 0.0000°E)
Time: 19:15:31
(UTC+01:00)

Daily predictions for brighter satellites

Satellite Brightness Start Highest point End
(mag) Time Altitude Azimuth Time Altitude Azimuth Time Altitude Azimuth
BLOCK DM-SL R/B 4.5 18:37:17 10° W 18:42:22 89° S 19:03:02 10° E
Ariane H10 4.4 18:41:58 10° W 18:46:22 73° N 19:15:52 10° E
BLOCK DM-SL R/B 2.2 19:03:09 10° W 19:05:43 78° N 19:15:33 10° E
Cosmos 1484 Rocket 3.1 19:10:44 10° SSE 19:14:25 43° E 19:18:00 10° N
IDEFIX/ARIANE 42P 3.2 19:09:43 10° S 19:14:54 65° WSW 19:20:02 10° NNW
Meteor 2-4 Rocket 3.8 19:13:08 10° S 19:18:42 84° W 19:24:06 10° N
Cosmos 494 Rocket 4.0 19:14:06 10° N 19:19:20 73° ENE 19:24:35 10° SSE
Intelsat 5-3 Rocket 3.0 19:12:36 10° WNW 19:20:28 56° NNE 19:23:49 10° E
ARIANE 42L R/B 2.4 19:21:00 10° W 19:23:50 88° S 19:29:51 10° E
MONITOR-E 4.3 19:20:45 10° S 19:23:56 82° WSW 19:27:07 10° NNW
Cosmos 2369 Rocket 2.5 19:18:39 10° S 19:24:01 48° ESE 19:29:25 10° NNE
Cosmos 1452 Rocket 3.6 19:22:57 10° S 19:28:05 56° ESE 19:33:12 10° NNE
Cosmos 1975 3.8 19:25:18 10° NNW 19:29:11 51° W 19:33:05 10° S
Helios 1B rocket 3.2 19:26:00 10° NE 19:29:42 33° ESE 19:33:25 10° SSE
Cosmos 1743 3.0 19:28:01 10° NNE 19:31:40 43° E 19:35:19 10° SSE
Intercosmos 25 3.9 19:28:36 10° N 19:32:28 62° E 19:38:30 10° S
Resurs 01 Rocket 3.6 19:33:06 10° E 19:33:11 10° E 19:33:11 10° E
ARIANE 5 DEB (SYLDA) 2.4 19:32:56 10° WNW 19:35:18 74° N 19:40:49 10° E
Cosmos 1500 4.2 19:33:01 10° NNW 19:36:46 51° W 19:40:32 10° S
Milstar 3 4.2 19:31:06 10° SSW 19:37:42 36° SE 19:46:46 12° E
COSMOS 2487 2.8 19:35:51 10° N 19:39:12 41° ENE 19:42:35 10° SSE
Cosmos 1892 Rocket 3.6 19:35:40 10° S 19:40:00 82° W 19:44:19 10° N
ATLAS 5 CENTAUR R/B 4.4 19:33:37 10° WNW 19:40:21 38° N 20:02:51 18° ENE
ATLAS 5 CENTAUR R/B 4.4 19:33:38 10° WNW 19:40:21 38° N 20:02:49 18° ENE
Cosmos 1934 Rocket 4.4 19:40:10 10° NNE 19:46:05 43° E 19:52:03 10° SSE
Meteor 1-29 3.3 19:45:43 15° NNE 19:48:22 44° ESE 19:51:43 10° S
Cosmos 1535 Rocket 4.4 19:43:04 10° N 19:49:10 64° E 19:55:13 10° SSE
Cosmos 1626 Rocket 4.1 19:49:23 10° SSE 19:53:27 37° E 19:55:54 20° NE
H-2A ROCKET BODY 4.1 18:50:52 10° WSW 19:56:49 78° SSE 20:03:08 22° ENE
Hubble Space Telescope 1.2 19:53:03 10° NW 19:56:56 39° NNE 19:58:29 28° ENE
Ariane H10+ 2.2 19:58:48 10° WSW 19:59:51 23° SSW 19:59:51 23° SSW
NOAA 12 4.0 19:55:44 10° SSE 20:01:01 67° ENE 20:06:15 10° N
Cosmos 2239 Rocket 4.4 19:57:42 10° N 20:03:50 87° W 20:10:00 10° S
Cosmos 1943 Rocket 2.4 19:59:42 10° S 20:05:07 48° ESE 20:07:52 27° NE
Timation 2 Rocket 4.3 20:00:59 10° N 20:07:37 52° ENE 20:14:06 10° SSE
Cosmos 1726 Rocket 3.6 20:09:15 21° NNE 20:12:01 54° E 20:16:22 10° SSE
Cosmos 1821 Rocket 4.2 20:08:23 10° N 20:14:27 73° W 20:20:37 10° S
METEOR-M 4.0 20:10:34 10° SSE 20:15:55 82° ENE 20:21:15 10° N
Spot 2 Rocket 3.6 20:15:41 10° SSE 20:20:36 48° ENE 20:21:53 39° NE
FengYun 1-2 T 4.4 20:16:09 10° SSE 20:21:32 48° ENE 20:23:59 30° NNE
Cosmos 1420 Rocket 4.3 20:16:34 10° SSW 20:21:50 68° WNW 20:25:40 19° N
SWIFT 3.8 20:21:06 10° SW 20:24:37 25° SSE 20:25:17 24° SE
Cosmos 1605 Rocket 3.8 20:19:01 10° N 20:25:08 68° E 20:31:12 10° S
SJ-6B 3.7 20:23:41 10° S 20:27:23 47° WSW 20:31:01 10° NNW
Cosmos 1606 Rocket 4.0 20:25:48 10° NNW 20:30:12 63° W 20:34:37 10° S
SAR-Lupe-4 3.8 20:27:01 10° S 20:30:04 63° S 20:30:04 63° S
Cosmos 1066 Rocket 4.1 20:27:22 10° S 20:33:03 87° W 20:35:43 32° N
ALOS 2.3 20:37:21 10° SSE 20:41:23 65° SE 20:41:23 65° SE
DELTA 2 R/B (1) 4.1 20:39:22 10° WSW 20:44:45 48° NW 20:45:38 44° NNW
ATLAS 2AS CENTAUR R/B 4.3 20:41:14 10° NW 20:47:35 33° WSW 20:53:28 10° S
Cosmos 1833 Rocket 2.6 20:42:18 10° NNW 20:47:54 81° WSW 20:53:31 10° SSE
Cosmos 2082 Rocket 2.6 20:44:44 10° NNW 20:50:20 61° WSW 20:55:57 10° S
ARIANE 44LP R/B 3.7 20:48:37 10° W 20:58:05 65° W 20:58:05 65° W
Cosmos 2058 Rocket 4.1 20:58:50 44° W 20:58:50 44° W 21:03:00 10° SSW
Lacrosse 4 Rocket 3.1 21:00:35 10° SSW 21:02:52 30° SSW 21:02:52 30° SSW
Resurs 01 Rocket 3.3 21:06:21 10° SSW 21:10:14 31° WSW 21:10:45 30° W
Spelda 4.1 21:05:25 10° W 21:13:10 43° WNW 21:13:10 43° WNW
Milstar 3 4.3 22:12:56 10° WSW 22:20:20 58° WNW 22:20:20 58° WNW
CZ-3C R/B 4.2 22:29:57 10° WSW 22:40:05 31° WSW 22:40:05 31° WSW
